TimeCDT,TemperatureF,Dew PointF,Humidity,Sea Level PressureIn,VisibilityMPH,Wind Direction,Wind SpeedMPH,Gust SpeedMPH,PrecipitationIn,Events,Conditions,WindDirDegrees,DateUTC
12:15 AM,78.8,66.2,65,30.06,10.0,ESE,8.1,-,N/A,,Clear,110,2013-07-11 05:15:00
12:35 AM,78.8,64.4,61,30.05,10.0,ESE,12.7,-,N/A,,Clear,120,2013-07-11 05:35:00
12:55 AM,78.8,62.6,57,30.04,10.0,ESE,12.7,-,N/A,,Clear,110,2013-07-11 05:55:00
1:15 AM,78.8,62.6,57,30.03,10.0,ESE,12.7,-,N/A,,Clear,110,2013-07-11 06:15:00
1:35 AM,77.0,62.6,61,30.03,10.0,ESE,11.5,-,N/A,,Clear,120,2013-07-11 06:35:00
1:55 AM,77.0,62.6,61,30.03,10.0,ESE,11.5,-,N/A,,Clear,110,2013-07-11 06:55:00
2:15 AM,77.0,62.6,61,30.03,10.0,East,10.4,-,N/A,,Clear,100,2013-07-11 07:15:00
2:35 AM,77.0,62.6,61,30.04,10.0,East,8.1,-,N/A,,Partly Cloudy,100,2013-07-11 07:35:00
2:55 AM,75.2,62.6,65,30.04,10.0,East,8.1,-,N/A,,Mostly Cloudy,100,2013-07-11 07:55:00
3:15 AM,75.2,62.6,65,30.04,10.0,East,9.2,-,N/A,,Partly Cloudy,90,2013-07-11 08:15:00
3:35 AM,73.4,62.6,69,30.03,10.0,East,10.4,-,N/A,,Clear,90,2013-07-11 08:35:00
3:55 AM,73.4,62.6,69,30.03,10.0,East,11.5,-,N/A,,Clear,100,2013-07-11 08:55:00
4:15 AM,73.4,62.6,69,30.03,10.0,East,11.5,-,N/A,,Clear,100,2013-07-11 09:15:00
4:35 AM,73.4,60.8,65,30.03,10.0,East,9.2,-,N/A,,Clear,100,2013-07-11 09:35:00
4:55 AM,73.4,60.8,65,30.03,10.0,East,10.4,-,N/A,,Clear,90,2013-07-11 09:55:00
5:15 AM,73.4,60.8,65,30.02,10.0,East,9.2,-,N/A,,Clear,90,2013-07-11 10:15:00
5:35 AM,73.4,60.8,65,30.02,10.0,ENE,9.2,-,N/A,,Clear,70,2013-07-11 10:35:00
5:55 AM,71.6,60.8,69,30.05,10.0,NNW,13.8,-,N/A,,Clear,340,2013-07-11 10:55:00
6:15 AM,73.4,60.8,65,30.06,10.0,NE,8.1,-,N/A,,Clear,50,2013-07-11 11:15:00
6:35 AM,73.4,62.6,69,30.07,7.0,NNE,6.9,-,N/A,,Clear,20,2013-07-11 11:35:00
6:55 AM,73.4,62.6,69,30.07,6.0,ENE,9.2,-,N/A,,Partly Cloudy,60,2013-07-11 11:55:00
7:15 AM,73.4,60.8,65,30.07,10.0,ENE,16.1,-,N/A,,Mostly Cloudy,70,2013-07-11 12:15:00
7:35 AM,71.6,62.6,73,30.07,9.0,ENE,13.8,-,N/A,,Overcast,70,2013-07-11 12:35:00
7:55 AM,73.4,62.6,69,30.07,10.0,East,16.1,-,N/A,,Overcast,90,2013-07-11 12:55:00
8:15 AM,71.6,62.6,73,30.07,10.0,East,19.6,24.2,N/A,,Overcast,90,2013-07-11 13:15:00
8:35 AM,73.4,62.6,69,30.07,10.0,East,18.4,24.2,N/A,,Overcast,90,2013-07-11 13:35:00
8:55 AM,75.2,62.6,65,30.07,10.0,East,18.4,-,N/A,,Mostly Cloudy,100,2013-07-11 13:55:00
9:15 AM,75.2,62.6,65,30.07,8.0,ESE,23.0,27.6,N/A,,Partly Cloudy,110,2013-07-11 14:15:00
9:35 AM,77.0,62.6,61,30.06,10.0,ESE,25.3,29.9,N/A,,Clear,120,2013-07-11 14:35:00
9:55 AM,78.8,64.4,61,30.06,10.0,SE,23.0,29.9,N/A,,Clear,130,2013-07-11 14:55:00
10:15 AM,78.8,62.6,57,30.05,5.0,ESE,24.2,-,N/A,,Clear,120,2013-07-11 15:15:00
10:35 AM,-9999,-9999,N/A,-9999,-9999.0,North,-9999.0,-,N/A,,Unknown,0,2013-07-11 15:35:00
10:55 AM,82.4,73.4,74,30.05,-9999.0,Calm,Calm,-,N/A,,Unknown,0,2013-07-11 15:55:00
11:15 AM,-9999,-9999,N/A,30.04,-9999.0,SE,13.8,-,N/A,,Unknown,130,2013-07-11 16:15:00
11:35 AM,84.2,66.2,55,30.05,10.0,SSE,12.7,-,N/A,,Clear,160,2013-07-11 16:35:00
11:55 AM,84.2,66.2,55,30.05,10.0,SSE,13.8,-,N/A,,Clear,150,2013-07-11 16:55:00
12:15 PM,86.0,66.2,51,30.04,10.0,SSE,12.7,18.4,N/A,,Clear,150,2013-07-11 17:15:00
12:35 PM,87.8,66.2,49,30.03,10.0,SSE,15.0,-,N/A,,Clear,150,2013-07-11 17:35:00
12:55 PM,87.8,68.0,52,30.03,10.0,South,13.8,-,N/A,,Clear,170,2013-07-11 17:55:00
1:15 PM,87.8,66.2,49,30.03,10.0,SSE,9.2,-,N/A,,Clear,160,2013-07-11 18:15:00
1:35 PM,87.8,66.2,49,30.02,10.0,South,11.5,-,N/A,,Clear,180,2013-07-11 18:35:00
1:55 PM,89.6,66.2,46,30.01,10.0,South,9.2,-,N/A,,Clear,180,2013-07-11 18:55:00
2:15 PM,89.6,68.0,49,30.00,10.0,SSE,11.5,-,N/A,,Clear,150,2013-07-11 19:15:00
2:35 PM,91.4,68.0,46,30.00,10.0,South,11.5,-,N/A,,Clear,190,2013-07-11 19:35:00
2:55 PM,91.4,66.2,43,29.99,10.0,SSE,10.4,-,N/A,,Clear,160,2013-07-11 19:55:00
3:15 PM,91.4,66.2,43,29.98,10.0,South,10.4,-,N/A,,Clear,170,2013-07-11 20:15:00
3:35 PM,93.2,66.2,41,29.97,10.0,SE,10.4,-,N/A,,Clear,140,2013-07-11 20:35:00
3:55 PM,93.2,64.4,38,29.96,10.0,SSE,6.9,-,N/A,,Clear,160,2013-07-11 20:55:00
4:15 PM,95.0,64.4,36,29.95,10.0,South,9.2,-,N/A,,Clear,180,2013-07-11 21:15:00
4:35 PM,96.8,64.4,34,29.94,10.0,SSE,9.2,-,N/A,,Clear,160,2013-07-11 21:35:00
4:55 PM,96.8,66.2,37,29.94,10.0,SSE,8.1,-,N/A,,Scattered Clouds,160,2013-07-11 21:55:00
5:15 PM,95.0,66.2,39,29.93,10.0,South,5.8,-,N/A,,Partly Cloudy,170,2013-07-11 22:15:00
5:35 PM,96.8,66.2,37,29.92,10.0,South,6.9,-,N/A,,Partly Cloudy,170,2013-07-11 22:35:00
5:55 PM,96.8,66.2,37,29.92,10.0,SSE,9.2,-,N/A,,Clear,150,2013-07-11 22:55:00
6:15 PM,95.0,66.2,39,29.91,10.0,SE,9.2,-,N/A,,Clear,140,2013-07-11 23:15:00
6:35 PM,95.0,66.2,39,29.90,10.0,SE,11.5,-,N/A,,Clear,140,2013-07-11 23:35:00
6:55 PM,95.0,64.4,36,29.91,10.0,SSE,10.4,-,N/A,,Clear,150,2013-07-11 23:55:00
7:15 PM,95.0,64.4,36,29.90,10.0,SSE,11.5,-,N/A,,Clear,150,2013-07-12 00:15:00
7:35 PM,93.2,64.4,38,29.91,10.0,SE,12.7,-,N/A,,Clear,130,2013-07-12 00:35:00
7:55 PM,91.4,64.4,41,29.91,10.0,SE,13.8,-,N/A,,Clear,140,2013-07-12 00:55:00
8:15 PM,91.4,64.4,41,29.91,10.0,SE,12.7,-,N/A,,Clear,140,2013-07-12 01:15:00
8:35 PM,89.6,62.6,40,29.91,10.0,SE,15.0,-,N/A,,Clear,140,2013-07-12 01:35:00
8:55 PM,87.8,62.6,43,29.92,10.0,SE,10.4,-,N/A,,Partly Cloudy,140,2013-07-12 01:55:00
9:15 PM,87.8,62.6,43,29.92,10.0,SE,10.4,-,N/A,,Scattered Clouds,140,2013-07-12 02:15:00
9:35 PM,86.0,62.6,45,29.93,10.0,SE,9.2,-,N/A,,Overcast,130,2013-07-12 02:35:00
9:55 PM,84.2,62.6,48,29.93,10.0,SE,8.1,-,N/A,,Mostly Cloudy,130,2013-07-12 02:55:00
10:15 PM,82.4,64.4,54,29.94,10.0,SE,9.2,-,N/A,,Scattered Clouds,130,2013-07-12 03:15:00
10:35 PM,82.4,62.6,51,29.95,10.0,SE,9.2,-,N/A,,Partly Cloudy,140,2013-07-12 03:35:00
10:55 PM,82.4,64.4,54,29.95,10.0,SE,9.2,-,N/A,,Partly Cloudy,130,2013-07-12 03:55:00
11:15 PM,80.6,64.4,58,29.97,10.0,SE,9.2,-,N/A,,Clear,130,2013-07-12 04:15:00
11:35 PM,80.6,64.4,58,29.97,10.0,SE,8.1,-,N/A,,Clear,130,2013-07-12 04:35:00
11:55 PM,80.6,64.4,58,29.97,10.0,SE,10.4,-,N/A,,Clear,140,2013-07-12 04:55:00